Theta_e
315 313 313 314 315 316 316 316 314 314 313 311 313 312 311 314 315 315 315 316 315 325 332 336 345 338 336 337 337 341 346 349 348 345 343 347 346 347 349 348 348 346 345 344 342 341 337 330 325 327 326 325 325 331 338 341 341 342 342 342 341 341 340 340 339 338 338 339 339 339 340 340 338 339 340 339 339 339 339 338 338 338 339 338 338 338 336 335 335 335 334 334 335 334 334 335 335
314 314 315 317 315 316 317 314 313 314 312 309 311 313 312 314 316 315 315 317 315 320 323 320 335 345 345 346 344 346 349 346 346 347 346 346 346 348 348 348 347 345 345 343 342 341 340 335 328 329 328 328 327 327 332 337 339 340 341 340 340 340 339 338 338 338 338 338 338 339 339 336 334 338 340 339 338 339 339 339 339 338 339 338 339 340 339 338 337 337 336 336 335 335 335 335 336
314 315 317 318 316 316 317 312 313 313 310 307 309 313 312 314 316 315 315 315 315 315 317 317 331 346 346 347 346 347 349 346 345 345 344 346 347 347 348 348 346 345 344 342 342 341 341 338 330 329 330 331 331 329 329 333 337 339 338 337 337 337 338 338 336 336 337 336 337 337 337 335 332 334 338 338 338 339 340 340 339 338 339 339 340 340 340 338 338 339 338 338 337 337 336 335 336
314 316 317 318 317 316 318 314 314 312 308 308 308 311 312 313 314 314 315 314 315 316 318 321 336 347 348 350 347 348 349 346 346 344 344 346 347 348 348 347 346 345 344 341 341 340 341 338 330 328 329 330 333 333 330 330 335 338 337 336 337 336 336 337 335 336 337 338 339 339 340 339 336 335 335 335 337 339 339 339 339 338 339 339 340 340 339 338 338 339 338 338 338 338 337 336 336
315 316 317 319 318 317 317 314 314 312 308 310 309 310 312 313 314 314 315 316 317 317 318 325 343 348 348 351 348 350 349 347 346 345 346 346 347 348 348 347 346 345 344 341 340 340 339 335 329 328 327 328 332 334 333 332 334 336 338 338 338 336 335 336 336 337 338 339 340 340 341 340 339 338 336 334 335 338 338 338 339 338 338 339 340 341 340 340 339 338 338 338 338 338 337 336 336
315 317 317 317 317 316 315 313 313 312 311 311 311 312 314 313 314 315 315 317 316 319 327 333 345 349 350 349 347 348 347 347 347 345 346 347 347 348 347 346 345 344 343 340 338 338 336 331 329 328 325 327 331 333 335 336 336 335 336 337 335 334 335 337 338 337 337 338 338 337 337 338 338 339 338 336 337 337 338 338 338 338 338 338 339 340 340 340 339 339 339 339 338 337 336 335 334
316 318 316 316 314 314 317 314 313 314 313 312 313 314 315 315 316 316 316 317 314 324 338 345 347 349 352 349 348 347 345 348 347 346 347 347 348 347 347 346 345 345 343 340 337 338 337 331 329 327 325 327 329 331 335 338 338 336 333 332 333 333 334 337 338 337 338 338 337 335 334 335 337 338 339 338 338 337 338 338 338 337 338 339 338 340 339 338 339 339 339 338 336 335 334 333 333
315 316 313 316 315 314 317 315 314 315 314 313 314 315 317 317 316 315 316 315 314 319 327 340 348 349 352 349 350 348 345 348 347 347 347 347 348 346 347 345 345 344 342 341 340 340 339 333 329 327 325 327 328 330 335 337 336 336 333 333 335 335 335 336 337 337 338 339 338 337 337 338 338 338 339 339 338 338 338 337 337 337 337 338 338 339 338 338 338 338 337 335 333 333 333 333 333
312 313 312 314 315 313 314 313 313 313 314 313 314 315 316 315 314 314 314 314 316 315 315 333 345 349 351 349 350 346 345 348 347 348 347 347 347 346 346 345 345 343 342 342 341 340 340 336 331 328 325 327 329 330 332 334 335 334 333 334 335 337 338 337 337 336 336 338 339 339 339 339 337 336 338 339 339 339 338 336 334 336 337 337 337 337 338 338 338 336 334 332 332 332 333 333 333
312 312 312 314 313 312 311 311 311 311 312 312 312 313 313 314 313 313 313 316 316 314 325 341 345 349 350 351 350 345 345 347 347 347 347 347 347 346 346 345 344 343 342 342 341 340 340 338 332 329 326 327 329 331 333 334 334 333 332 331 333 336 338 337 336 336 335 336 338 337 337 336 335 335 338 339 338 338 336 334 333 333 335 336 336 337 337 337 335 334 333 331 332 333 333 333 333
313 310 311 313 312 310 310 310 311 312 311 311 312 312 313 312 311 316 318 320 316 315 337 349 347 350 350 350 349 344 345 346 347 347 347 347 346 346 345 345 344 343 342 341 341 339 340 339 334 330 327 328 329 331 333 332 331 331 329 329 331 333 335 335 333 334 335 336 336 335 335 335 334 335 337 338 337 337 335 335 334 333 332 333 335 336 336 335 334 334 333 331 332 333 333 333 333
313 311 312 314 312 310 310 310 311 313 313 313 313 313 312 310 318 332 329 322 318 324 342 349 347 349 349 351 348 343 344 346 347 347 346 346 346 346 345 344 344 343 342 341 341 340 340 340 337 333 328 329 331 333 333 331 329 327 327 327 329 330 330 330 330 332 334 336 335 334 335 336 336 335 336 336 337 337 336 335 334 334 332 332 333 334 334 333 333 332 331 331 332 333 334 333 333
313 312 313 312 311 312 311 311 311 313 314 313 313 312 310 312 330 341 335 331 331 336 344 346 346 348 350 351 347 342 343 344 346 346 345 346 346 345 345 344 344 343 343 342 341 340 338 338 339 336 330 331 333 335 335 332 329 327 326 326 326 327 327 328 329 331 333 333 333 334 335 336 336 336 336 336 336 335 334 333 333 334 333 332 332 333 333 332 331 330 330 330 331 333 334 334 333
312 311 313 312 310 312 311 311 311 312 312 313 311 311 309 315 334 341 338 343 344 343 344 345 345 349 352 351 348 343 341 344 345 345 345 345 346 345 344 344 343 343 342 341 341 341 339 337 337 336 333 334 336 337 336 333 330 327 326 327 327 327 327 329 331 331 332 331 331 333 333 334 335 335 336 336 335 334 333 333 333 333 332 332 332 331 332 331 329 329 329 330 331 333 333 333 333
311 310 313 314 311 311 311 311 311 311 311 313 311 309 311 313 329 343 343 346 347 343 345 345 344 347 350 352 351 343 341 345 344 344 345 345 345 345 344 344 343 342 342 341 341 340 339 336 335 337 337 337 338 338 337 333 330 328 328 329 330 330 330 332 333 334 333 331 330 331 331 332 333 334 335 335 334 333 333 333 333 334 332 332 332 331 332 331 328 328 329 329 331 332 333 333 333
310 310 313 313 311 310 310 311 311 311 312 312 311 309 312 311 322 341 344 343 347 344 344 347 344 345 346 349 348 342 342 344 344 344 344 344 344 345 344 343 343 343 342 341 341 340 339 338 338 338 337 337 338 339 338 334 331 330 330 332 332 332 334 335 335 335 335 333 331 331 331 332 333 334 334 334 334 334 335 334 333 333 332 332 332 331 331 330 328 327 328 328 331 332 333 333 333
309 312 314 312 310 310 309 311 311 310 311 312 311 309 311 311 315 335 344 342 346 345 344 346 345 345 345 346 344 342 344 343 344 344 343 343 344 344 344 343 343 343 343 342 342 342 341 341 340 338 337 337 338 338 339 336 333 332 333 334 335 335 336 336 336 336 335 334 334 334 334 334 335 337 337 336 335 335 335 334 333 332 331 331 331 331 331 330 327 326 327 328 330 332 333 333 333
312 314 314 311 311 311 310 312 311 309 312 311 312 309 311 313 310 325 342 344 345 345 345 346 346 346 345 345 343 343 343 343 343 343 342 342 343 343 343 343 343 343 343 342 342 342 342 342 341 338 335 337 338 338 339 338 336 334 335 335 336 336 336 337 337 337 337 336 337 337 337 336 337 339 338 336 335 335 334 333 333 331 331 330 330 330 331 330 327 326 326 327 330 332 332 333 333
313 313 312 311 311 310 310 311 310 310 311 310 312 309 309 313 311 322 339 345 345 345 346 347 349 348 344 344 343 343 342 343 342 342 342 341 342 343 343 343 343 343 343 342 342 342 342 342 342 338 335 337 338 338 339 338 336 335 336 336 337 337 337 338 338 338 338 337 338 338 337 336 336 337 336 335 335 335 333 331 331 331 330 329 327 327 328 328 327 327 326 327 330 331 332 333 334
312 312 312 313 310 309 310 309 310 310 310 311 312 310 311 311 313 328 340 343 347 346 346 347 350 351 346 342 342 343 342 342 342 342 342 342 342 342 342 343 343 343 343 343 342 342 342 341 342 339 337 338 338 339 339 337 336 335 336 336 337 337 337 339 338 338 339 338 338 338 337 336 335 335 335 335 334 333 330 328 330 330 327 325 324 323 324 325 326 326 326 327 329 331 332 333 334
312 312 313 311 309 311 311 309 310 310 309 311 311 311 313 310 317 334 339 337 342 344 345 346 348 350 347 342 342 343 342 342 342 341 342 342 342 341 342 342 342 342 342 343 343 342 342 341 341 340 338 338 338 339 339 337 336 335 336 336 337 338 338 339 339 339 339 339 338 337 337 336 335 335 334 334 334 332 328 329 329 326 324 323 323 322 322 323 325 326 326 327 329 330 331 332 334
312 313 313 310 310 313 313 311 311 310 309 310 311 312 312 310 314 326 327 325 331 337 342 344 345 346 345 343 342 343 342 341 341 341 342 342 341 341 341 341 342 342 342 342 342 342 342 341 341 340 338 338 338 339 338 337 336 335 336 337 337 338 338 339 339 339 339 339 338 338 337 336 335 335 335 334 333 330 328 329 327 323 323 322 322 323 322 322 324 327 326 327 329 330 331 332 333
312 313 312 312 312 313 313 313 313 311 311 311 313 310 309 310 310 316 322 324 331 338 340 342 345 345 345 344 342 342 341 340 341 342 342 342 341 340 341 341 341 342 342 342 342 342 341 341 341 340 339 338 338 339 339 338 337 336 336 337 338 338 338 338 338 338 338 338 338 338 338 336 336 335 335 332 331 330 329 327 324 323 324 323 323 325 325 324 325 327 327 327 329 329 330 332 333
313 313 313 313 313 313 313 313 313 312 311 311 311 309 309 310 310 316 322 328 338 341 341 342 344 345 345 344 342 342 341 340 341 343 342 341 341 341 340 340 340 341 341 341 341 341 340 341 340 340 339 338 338 338 339 339 337 337 336 337 338 337 337 337 336 337 337 337 338 339 338 337 336 336 335 331 330 330 328 325 324 325 326 325 326 328 327 327 327 327 327 328 329 329 330 332 333
313 314 314 314 313 313 313 312 312 312 310 310 309 308 310 309 310 312 313 329 343 343 342 343 343 345 345 343 343 343 341 341 343 343 341 341 340 340 339 339 340 340 340 341 340 339 339 340 340 340 339 338 338 338 339 339 337 337 337 337 338 337 337 336 336 336 337 337 338 337 337 336 336 335 334 332 330 328 326 325 326 327 329 329 329 330 330 330 330 329 329 329 329 329 329 331 332
314 315 314 314 315 313 312 311 312 311 308 308 309 310 310 308 309 310 317 333 344 343 343 344 343 345 345 344 344 342 340 342 344 343 340 339 338 338 338 338 340 339 340 340 340 340 338 339 340 340 340 339 338 338 339 338 338 337 337 338 338 337 335 335 337 337 337 336 336 335 335 334 334 333 332 331 331 327 325 327 328 330 331 331 331 331 331 331 331 330 330 329 329 329 330 330 332
313 313 313 313 313 311 310 310 310 308 307 308 309 311 310 308 308 311 331 340 343 343 344 344 344 346 345 344 343 342 342 343 344 343 340 338 337 337 337 338 339 340 340 339 340 341 339 338 341 340 339 339 339 339 339 338 337 336 336 338 337 335 334 335 337 336 335 334 334 334 334 333 333 332 330 330 330 328 326 327 329 331 331 331 331 331 331 331 331 330 330 330 329 330 330 330 330
311 311 311 311 309 309 308 309 310 308 310 309 308 311 308 309 309 310 335 344 342 344 344 344 345 345 345 345 343 342 343 344 344 342 341 339 338 337 337 338 339 340 340 339 340 341 339 338 340 341 339 339 338 338 338 337 337 336 336 336 334 332 332 333 333 334 334 332 332 333 334 334 334 332 330 329 328 327 327 328 330 331 331 330 330 331 331 330 331 330 330 330 330 330 330 330 329
309 309 309 310 309 310 309 308 308 307 310 310 307 311 309 310 311 309 330 345 342 343 344 343 345 344 345 346 344 343 343 344 343 341 341 339 338 337 336 337 339 340 339 339 339 340 341 338 338 340 339 338 338 337 337 336 336 336 336 334 332 331 330 329 330 333 333 331 332 333 334 335 335 334 332 331 329 327 327 330 331 331 330 330 330 331 330 330 330 330 329 329 330 330 330 331 330
310 309 309 310 311 311 309 307 307 307 310 309 308 311 310 313 312 308 328 344 342 343 343 343 344 344 345 345 345 344 343 344 343 341 340 338 338 337 337 337 338 339 339 339 339 339 341 339 338 339 338 338 336 335 336 336 336 336 334 332 332 330 329 327 327 331 334 333 333 333 333 334 335 334 333 332 331 329 328 330 330 331 331 331 331 331 331 330 330 329 329 329 329 331 332 332 331
310 309 309 309 311 311 310 309 308 309 309 308 309 310 310 314 311 311 332 344 342 343 343 342 343 343 344 345 346 344 344 345 343 341 339 337 338 337 337 337 337 339 339 339 338 338 340 339 338 339 338 337 334 334 335 335 335 334 332 332 331 330 328 327 327 330 333 333 333 334 334 333 334 334 334 333 332 331 330 331 331 331 331 331 331 331 331 330 329 329 329 328 329 332 333 332 332
308 310 311 309 310 310 310 309 308 309 309 308 309 310 310 313 309 312 333 344 342 343 343 342 343 342 344 344 346 346 344 344 342 340 339 338 338 337 337 337 337 338 339 339 338 337 338 339 339 339 338 336 333 334 335 334 334 332 331 330 330 330 327 327 329 331 332 333 334 334 333 332 333 334 334 333 333 332 332 332 332 331 331 331 331 331 331 330 330 329 328 327 329 332 333 332 332
308 310 313 310 310 310 310 309 308 308 309 309 309 310 310 313 308 312 332 343 342 343 343 342 343 342 343 343 345 345 344 343 341 339 339 338 338 338 337 337 338 338 337 338 338 337 337 337 337 338 338 335 332 333 334 333 332 330 330 329 329 330 328 329 333 332 330 332 334 334 332 333 334 334 334 334 333 333 332 332 332 331 332 332 331 332 332 330 330 329 328 327 330 332 332 332 332
311 310 311 311 310 309 309 310 308 308 310 310 310 310 311 312 310 315 334 344 342 343 343 342 343 342 342 343 343 343 344 343 340 339 338 337 337 337 337 337 338 338 337 337 337 338 337 336 336 337 337 334 331 331 333 332 330 330 329 329 330 330 330 332 334 332 330 331 334 334 333 334 334 334 334 333 333 332 332 332 331 331 332 333 332 332 332 331 330 329 328 328 330 332 331 332 332
313 312 311 311 309 309 309 309 309 309 310 311 310 311 311 312 311 313 326 341 344 343 343 343 342 342 342 342 342 342 342 342 340 338 337 337 336 336 337 337 337 337 338 337 337 337 336 336 336 336 335 332 331 331 331 330 330 330 330 331 331 331 332 334 334 332 331 333 334 334 334 334 334 333 333 333 332 332 331 331 331 331 332 332 332 332 332 331 330 329 328 329 330 331 331 332 331
311 310 310 310 310 310 309 309 309 309 310 311 311 311 311 312 312 310 313 330 343 343 342 343 342 342 342 342 342 341 341 342 341 338 336 336 335 335 336 336 336 337 337 337 337 336 336 336 336 336 334 333 332 331 331 331 331 331 331 332 333 332 333 334 334 333 332 333 334 334 334 334 333 332 333 332 332 332 332 332 332 332 332 332 332 332 332 331 330 330 330 330 330 330 331 331 331
309 309 310 310 311 311 309 309 309 308 309 311 311 311 311 311 313 313 309 319 337 343 342 343 342 342 342 342 341 340 341 341 340 337 335 335 335 335 336 336 336 336 337 337 337 337 336 336 335 335 334 333 332 332 332 331 331 331 331 332 333 333 333 334 334 332 332 333 334 334 334 334 333 332 333 332 332 332 332 332 332 332 332 332 332 332 332 331 330 331 331 330 330 330 330 331 330
309 310 311 311 311 311 309 309 309 308 309 311 312 311 312 312 314 314 310 314 330 339 342 343 342 342 341 342 342 340 340 339 338 336 335 335 334 335 335 335 336 336 336 337 336 336 336 336 335 335 334 333 332 332 332 331 331 331 331 332 333 333 333 334 334 332 331 333 334 334 333 333 333 332 332 332 332 332 332 332 333 333 332 332 332 331 331 331 330 331 331 330 330 329 330 330 329
310 310 311 312 311 310 310 310 309 308 309 311 312 311 312 313 314 313 312 313 323 334 341 342 343 343 342 342 342 340 340 339 337 336 335 335 334 334 335 335 335 335 335 336 336 336 335 336 335 335 334 333 332 331 331 332 331 332 332 332 332 332 332 333 333 332 332 333 333 333 333 333 333 333 332 332 332 332 332 332 333 333 332 332 331 331 331 331 330 331 330 330 330 329 330 329 329
311 311 311 312 311 310 311 311 311 310 310 311 311 311 313 313 314 314 313 313 317 326 336 341 342 343 343 342 341 340 340 339 338 337 335 334 334 334 334 335 334 335 335 335 336 335 335 335 334 334 334 332 331 329 330 332 332 332 332 332 332 332 332 332 333 333 333 333 334 334 334 333 333 333 333 333 333 333 333 333 333 333 332 332 331 331 331 331 331 331 331 331 330 330 330 330 329
313 312 311 311 310 310 311 311 311 311 312 312 311 311 313 314 316 315 313 314 316 317 326 337 341 342 342 342 341 340 340 339 338 337 335 334 334 334 334 334 334 334 335 335 335 335 335 335 334 333 333 332 331 330 330 331 332 332 332 332 332 332 332 332 333 333 333 334 335 335 334 334 334 334 333 333 333 333 333 332 332 333 332 332 332 332 331 331 331 331 331 331 331 330 330 331 330
313 313 311 310 310 310 310 310 310 311 312 313 312 312 313 315 316 315 315 319 322 320 321 329 337 341 342 341 341 340 340 339 337 336 335 335 334 334 334 334 334 334 334 334 335 335 335 334 334 333 332 332 332 331 331 331 332 332 332 332 333 333 333 333 333 334 333 334 334 334 334 333 333 333 333 333 332 332 332 332 332 332 332 331 332 332 331 331 331 331 331 330 330 330 331 332 330
312 313 313 310 309 310 310 309 310 311 312 313 313 313 313 315 315 315 318 323 328 327 326 327 332 339 341 341 341 339 339 338 337 336 335 334 334 334 334 333 334 334 334 334 334 334 334 334 333 333 333 332 332 331 331 331 332 333 333 333 334 334 333 333 333 333 333 333 333 334 333 333 332 333 333 333 332 332 332 332 331 331 331 331 332 332 331 331 331 331 330 330 330 329 330 332 331
312 314 313 310 309 310 310 310 311 311 312 313 313 312 313 314 314 320 326 328 330 332 331 331 332 337 339 340 339 338 338 337 336 336 334 334 334 333 333 333 333 333 333 333 333 334 334 333 334 333 332 331 331 330 331 332 333 333 333 333 334 334 334 333 333 332 333 333 333 333 333 333 333 333 333 332 332 332 332 332 331 331 331 331 331 331 331 331 330 330 330 330 329 329 329 332 331
312 311 310 309 309 309 309 310 311 312 312 313 314 312 314 314 314 325 331 330 330 332 332 333 334 336 339 339 338 338 337 336 335 335 334 334 334 333 333 332 333 333 333 332 332 332 333 333 333 332 331 330 330 330 331 332 333 333 333 333 333 333 332 332 332 332 333 333 333 332 332 332 332 332 332 331 331 331 331 331 331 331 331 331 331 331 331 331 330 329 330 330 329 329 329 330 330
311 309 308 308 309 309 310 310 311 313 313 313 315 314 314 314 314 326 333 331 331 334 332 333 334 336 339 338 338 338 337 336 335 334 334 334 333 333 332 332 332 332 332 332 332 332 332 332 331 330 330 330 330 331 332 333 333 333 333 332 332 331 331 331 332 333 333 333 332 331 331 332 331 331 330 330 330 330 330 331 331 331 331 331 331 331 331 331 330 329 329 330 330 329 328 329 329
308 308 309 309 310 310 310 311 311 313 313 313 316 316 315 313 313 323 331 330 330 333 333 334 335 336 338 339 338 338 336 336 335 334 335 334 333 332 332 332 332 332 332 332 332 331 331 331 331 330 329 329 330 331 332 333 333 333 332 331 330 330 330 331 333 333 332 331 331 330 330 330 329 329 328 327 328 328 328 329 330 331 331 331 331 331 331 331 330 329 329 328 329 329 328 328 328
308 309 310 310 311 311 311 311 312 313 314 314 313 313 314 314 313 319 326 327 326 328 331 333 334 336 337 339 338 336 335 335 335 335 334 333 332 332 332 332 332 332 332 331 331 331 330 330 330 329 329 330 330 332 332 333 333 333 332 330 330 330 330 331 332 331 330 329 328 328 328 328 327 326 326 325 325 325 325 326 327 328 330 331 331 330 331 332 331 330 329 328 327 328 328 328 328
308 309 310 311 312 312 313 312 313 314 315 313 310 311 314 313 314 316 321 325 327 327 328 329 332 334 337 338 337 336 335 335 335 335 334 333 332 332 332 332 332 332 332 331 331 330 329 330 330 330 330 331 331 332 333 333 333 333 331 330 329 329 330 330 330 329 327 326 326 326 326 326 325 325 324 324 324 324 324 324 325 326 328 330 330 329 331 332 331 330 330 329 328 328 328 328 328
308 309 310 312 312 312 313 312 312 313 314 313 310 312 313 312 316 322 322 326 328 328 329 329 329 332 336 337 336 335 335 335 335 335 334 332 331 330 332 332 332 332 331 331 331 330 329 330 330 330 330 331 331 332 333 333 333 331 329 329 329 328 328 328 328 327 324 323 323 323 324 324 324 324 324 324 324 324 323 323 323 324 327 329 328 328 329 331 331 331 330 329 329 329 328 328 328
308 309 310 312 312 313 313 313 313 313 314 313 312 314 314 313 319 324 325 327 328 329 330 329 327 329 333 337 335 335 335 335 335 335 334 332 330 330 331 332 332 332 332 331 331 329 329 330 330 331 331 331 332 332 334 333 332 330 329 329 328 325 325 325 325 324 323 323 323 323 323 323 323 324 324 324 323 323 323 324 324 324 326 327 327 327 328 329 330 331 330 329 329 329 329 328 328
308 307 309 311 313 314 313 312 313 313 313 313 313 315 315 316 319 321 324 329 330 331 331 331 330 330 334 337 336 335 335 335 335 335 334 332 331 330 331 332 332 332 331 331 331 330 329 330 330 331 331 331 332 333 334 332 331 329 328 329 328 325 324 324 323 323 323 323 323 323 323 323 324 324 324 324 323 323 324 324 325 325 326 327 326 326 326 327 328 329 330 329 328 328 328 327 327
309 308 310 310 310 314 315 312 312 313 313 314 316 316 317 319 319 322 327 332 331 330 332 334 333 334 337 337 336 335 335 335 335 335 334 332 331 331 331 332 332 332 331 331 331 330 329 329 330 331 330 331 333 333 332 332 331 329 328 329 328 325 324 324 324 324 324 324 324 323 323 324 324 323 323 324 323 323 323 323 323 324 325 325 325 325 325 326 327 328 329 328 327 328 328 327 327
310 310 311 309 308 312 315 313 313 313 313 314 317 319 322 321 319 323 330 332 331 331 332 334 333 334 336 336 336 335 335 335 335 334 333 332 332 331 331 332 332 332 331 331 330 330 329 329 329 330 330 331 332 332 332 331 330 329 328 328 329 326 325 325 324 324 324 325 324 324 324 324 323 322 322 323 323 322 322 322 322 323 323 324 324 325 326 327 328 328 328 328 328 328 327 327 327
309 310 309 310 311 313 313 313 314 314 313 314 318 321 322 321 322 327 331 330 330 331 331 331 331 331 333 334 334 335 335 336 336 335 334 332 332 331 331 331 331 331 331 331 330 329 329 329 329 330 330 331 331 331 331 330 328 328 327 328 329 327 326 326 325 325 325 325 324 324 324 323 322 321 322 323 323 322 322 321 322 323 324 325 326 327 327 327 328 328 328 327 327 327 327 326 326
308 309 309 310 313 314 313 313 314 314 315 315 317 319 320 320 322 325 328 327 328 332 331 330 330 329 330 330 330 330 331 333 334 335 335 333 331 330 331 331 331 331 331 330 330 329 329 329 329 329 330 330 329 328 328 327 327 327 327 327 328 328 326 326 325 324 325 325 324 324 323 322 321 322 322 323 323 322 321 320 321 323 325 327 327 327 327 327 327 327 327 326 325 325 325 324 323
310 310 311 311 313 312 312 314 313 313 315 315 315 316 317 320 320 322 325 325 326 331 331 329 328 327 327 326 326 326 327 330 331 331 332 331 329 328 330 331 331 330 330 329 329 329 329 329 329 329 329 328 327 326 325 326 326 327 327 327 328 328 327 325 324 323 324 324 324 323 323 322 322 322 323 323 323 322 320 320 321 323 325 326 326 326 326 327 326 325 323 321 319 318 318 319 320
311 311 311 312 314 313 312 314 314 315 316 315 315 314 315 320 320 322 324 324 326 328 329 328 327 326 325 324 324 324 324 326 327 327 328 328 327 327 329 330 329 329 329 328 328 329 329 328 328 328 328 327 326 325 325 324 325 326 326 326 327 326 325 323 323 323 324 324 323 323 323 322 322 323 323 323 322 321 319 320 322 323 323 324 324 324 324 322 319 317 316 314 313 313 314 316 317
Wind_Speed
7 6 6 5 4 4 2 1 1 1 0 2 2 1 1 3 1 3 4 2 1 1 1 3 2 2 2 2 2 2 4 2 0 1 0 2 7 16 18 22 27 25 25 25 24 24 24 26 26 26 26 26 27 27 27 26 25 25 26 26 26 25 25 25 25 24 23 23 23 24 24 23 22 22 22 22 23 23 23 22 22 22 23 22 22 21 22 23 22 21 21 19 19 18 18 18 17
8 7 6 5 4 2 2 1 1 1 1 3 2 2 1 1 1 4 5 4 2 3 5 7 3 3 2 1 1 1 4 5 4 2 3 8 14 16 19 24 25 25 26 24 24 23 23 25 26 26 26 26 25 26 27 26 25 24 25 25 26 26 25 24 23 23 23 24 24 24 23 23 23 23 22 22 23 23 23 22 22 22 23 22 21 20 21 21 20 20 19 18 17 17 17 17 16
8 7 5 6 3 1 2 1 1 1 2 3 2 2 0 1 4 5 5 5 5 8 8 8 4 3 3 2 0 2 2 4 4 4 6 13 14 16 22 23 24 25 25 24 23 22 23 24 26 26 26 26 25 25 26 26 24 23 24 24 24 25 24 23 23 23 23 23 23 22 21 22 23 23 23 22 23 22 22 21 22 22 22 22 21 19 19 19 18 18 17 16 16 15 14 15 13
7 6 4 4 1 1 2 0 1 2 3 2 1 2 2 4 4 3 5 5 6 10 8 6 2 1 2 1 1 1 3 3 4 6 7 11 12 18 23 23 24 23 23 23 22 22 24 25 26 26 25 26 25 25 25 25 25 23 23 23 23 23 23 23 23 24 23 22 21 20 20 20 21 22 22 23 23 23 22 22 22 22 22 22 21 19 19 18 18 17 16 15 15 14 13 13 12
7 5 3 2 1 1 2 1 1 2 3 1 0 1 3 4 2 4 7 7 8 12 8 4 1 3 3 4 2 1 2 3 6 7 8 12 15 20 23 24 24 22 22 22 21 22 24 27 27 25 25 25 25 25 25 25 25 25 24 23 23 23 23 23 23 23 22 21 20 20 20 19 19 19 20 21 22 22 22 22 22 22 22 22 21 19 18 18 17 17 16 15 14 14 13 12 12
7 6 4 2 1 1 2 1 2 4 2 2 3 3 2 3 3 7 11 10 9 11 6 4 1 4 5 5 4 3 3 1 6 7 10 15 19 21 23 24 23 22 22 22 22 22 26 29 27 26 25 25 25 26 26 25 24 24 24 24 24 23 23 22 22 22 21 21 20 19 19 19 19 18 19 19 20 21 21 22 23 22 21 21 20 18 18 17 17 17 15 14 13 13 13 12 12
6 4 3 3 2 1 2 2 3 4 2 4 4 6 5 5 5 8 12 10 5 4 3 2 2 5 4 3 3 6 6 2 5 8 12 18 21 22 22 23 23 23 20 20 21 21 26 29 27 26 25 24 25 26 26 25 24 23 23 25 24 23 22 21 21 21 21 20 21 20 20 20 20 19 19 18 19 20 20 21 22 22 21 20 19 18 17 17 17 16 15 14 14 13 13 12 11
3 2 1 1 2 1 1 2 3 2 2 4 4 7 9 10 8 9 10 7 3 3 5 3 3 4 3 2 2 7 11 8 9 13 16 19 21 21 21 22 23 22 20 19 19 21 25 27 26 25 25 24 24 25 25 25 24 23 23 23 22 22 22 22 21 21 20 19 20 21 21 20 20 20 20 20 19 19 19 19 20 20 21 20 18 17 17 17 17 16 15 15 14 14 13 13 13
2 2 1 1 2 0 1 2 2 2 4 4 6 8 9 10 9 9 9 9 4 6 8 5 4 3 5 6 6 6 9 10 15 18 19 20 20 20 21 21 23 22 19 18 18 21 23 25 26 25 25 24 24 24 24 24 23 23 23 22 21 21 21 22 22 21 19 19 19 19 19 18 19 19 20 21 20 19 19 19 18 19 20 19 17 17 17 17 16 16 16 15 13 12 13 13 15
2 2 1 1 1 1 2 2 2 2 4 5 7 9 9 8 8 8 10 11 6 5 4 3 2 4 8 7 6 4 5 11 17 18 18 19 18 20 20 20 23 23 20 18 19 21 21 23 24 23 24 23 23 24 23 23 22 22 22 22 21 20 20 20 20 20 19 19 19 18 18 18 18 19 19 20 19 18 18 17 15 16 18 18 17 16 17 16 16 16 15 15 13 12 12 14 15
1 1 0 1 2 3 3 3 2 3 4 6 6 6 6 6 7 8 8 9 6 4 4 4 5 8 9 6 4 4 7 11 16 18 18 17 17 19 20 20 21 23 22 20 19 20 21 22 22 22 23 22 22 23 22 21 21 21 21 21 21 20 20 19 19 18 17 18 19 18 18 18 18 18 19 18 17 15 15 14 12 13 15 16 16 15 15 16 16 15 15 15 14 12 12 14 16
1 1 0 2 2 2 2 2 3 5 6 5 2 0 3 6 6 7 7 6 4 4 6 4 6 8 7 6 4 7 10 9 13 18 18 18 17 19 21 20 20 21 22 22 20 20 21 20 20 20 22 22 21 21 20 20 20 20 19 20 20 20 20 19 19 18 17 17 18 17 17 18 17 17 17 17 16 14 13 12 12 12 14 15 16 14 14 15 15 16 16 15 14 13 12 14 15
1 2 2 2 1 1 0 2 3 5 5 1 1 2 5 6 5 7 6 2 1 4 4 3 6 6 5 6 4 7 10 8 12 19 20 19 18 19 20 21 21 21 21 21 20 20 20 19 19 20 22 22 21 20 19 19 19 19 19 19 19 19 20 19 19 19 17 16 17 17 16 16 16 15 15 16 15 13 12 12 13 12 13 16 16 15 14 14 15 16 16 14 14 14 13 13 14
1 1 2 1 0 1 1 2 2 3 2 1 1 4 6 4 5 6 3 1 3 1 1 2 4 4 6 7 5 6 9 10 14 20 20 18 19 19 20 21 22 21 21 21 21 21 20 19 19 21 22 22 21 20 19 19 19 19 19 18 18 19 19 19 19 18 17 16 16 16 16 15 15 15 14 14 13 12 12 13 14 12 13 15 15 16 15 14 15 15 14 13 13 13 13 13 14
1 1 0 1 1 1 2 2 1 2 1 2 1 6 7 2 3 4 2 2 3 3 2 3 1 1 5 8 6 7 12 15 17 20 19 19 19 19 20 21 21 22 20 20 21 21 21 20 20 20 20 20 20 19 19 20 20 20 19 19 19 19 20 19 19 18 17 16 16 16 16 15 15 14 14 13 12 12 13 13 13 13 13 14 14 15 14 14 14 14 14 13 12 13 12 12 14
1 1 1 1 2 1 3 3 1 2 1 1 1 6 9 4 3 3 3 2 3 4 2 3 4 3 4 7 10 16 18 18 19 20 21 22 20 18 19 20 21 21 20 20 19 20 22 20 19 19 19 20 19 18 19 20 20 19 19 19 19 19 19 19 19 18 17 16 16 16 16 16 15 14 13 13 13 13 13 12 12 12 12 13 13 14 13 13 14 14 13 13 12 12 12 12 14
1 1 1 2 3 2 4 4 3 1 3 3 5 8 10 9 6 2 1 2 4 4 4 4 4 1 4 10 19 24 21 20 21 22 22 22 20 18 18 19 19 19 19 19 17 18 19 18 18 18 20 21 19 19 19 20 19 18 18 18 19 18 18 17 18 18 18 17 16 17 16 17 16 13 13 13 13 13 13 11 11 12 13 13 13 12 12 12 13 14 13 13 12 12 12 12 13
2 2 2 4 3 2 4 4 2 1 5 7 9 6 7 11 8 2 1 4 5 4 5 6 7 7 12 18 24 24 22 23 24 22 22 20 19 18 18 19 19 18 19 19 19 19 18 19 20 20 22 22 20 20 20 20 20 19 17 18 18 18 17 17 17 18 18 17 17 16 16 17 16 14 14 14 14 13 12 11 10 10 11 12 12 12 11 11 12 13 13 14 13 12 12 12 14
2 2 3 4 2 1 2 2 1 2 7 10 9 3 4 9 6 1 2 1 4 3 5 6 10 12 16 21 23 23 23 23 22 21 21 21 20 20 20 20 19 20 21 21 21 21 20 21 21 21 24 24 22 21 21 21 21 20 18 18 18 17 17 16 17 18 17 16 16 16 16 17 16 14 14 13 13 12 11 11 10 9 9 10 12 12 12 11 12 12 13 14 14 13 13 13 14
1 2 5 2 2 1 2 4 4 4 5 9 10 5 4 6 3 2 2 1 4 4 5 6 10 13 14 17 21 22 22 21 20 20 20 20 20 21 22 21 22 23 22 21 22 22 21 22 21 21 23 24 23 22 23 23 22 21 18 18 18 17 17 16 17 17 17 16 16 17 16 16 15 14 13 13 12 11 11 11 10 9 9 10 11 12 12 11 12 12 12 13 14 13 13 14 14
2 3 3 3 3 2 2 5 7 5 3 5 9 8 8 5 2 3 2 2 3 4 6 7 11 15 14 15 18 20 20 19 18 19 18 17 18 19 20 20 20 21 22 20 21 21 21 21 20 20 22 24 24 22 24 25 23 21 19 18 18 17 17 17 17 17 17 16 16 16 16 16 15 14 14 14 11 11 11 10 9 9 10 10 10 11 11 11 11 12 12 13 14 13 13 14 15
2 3 2 3 2 3 3 5 6 3 1 5 8 8 8 6 4 4 3 5 2 1 5 9 13 16 16 15 17 18 18 16 16 18 17 17 18 18 18 17 16 17 18 19 19 19 20 20 20 21 22 24 24 22 23 25 23 22 19 18 18 17 17 17 16 16 16 15 15 15 16 16 15 14 14 12 10 10 10 8 9 10 9 9 9 9 10 11 12 13 13 14 14 13 12 13 14
4 3 1 2 3 3 4 6 5 1 2 6 6 5 5 7 7 3 5 7 1 1 6 12 14 17 18 16 16 16 16 16 17 18 18 19 20 20 21 20 17 15 15 15 16 19 21 21 21 22 22 23 24 22 23 23 22 22 19 18 17 17 17 16 16 15 15 15 15 15 15 15 14 14 13 11 10 9 9 9 10 10 9 9 9 9 9 11 12 13 14 14 14 13 12 13 14
7 3 1 3 3 4 6 6 7 3 4 6 5 5 4 7 7 3 4 4 1 2 9 14 16 19 18 16 16 16 16 17 18 19 18 19 20 20 19 20 18 15 14 14 14 18 20 20 21 22 22 23 23 22 22 21 21 21 19 18 17 17 17 15 15 15 15 15 15 14 14 14 13 12 11 11 10 9 10 10 10 9 9 9 9 9 9 10 11 12 13 14 13 12 11 13 15
8 6 2 4 3 5 5 5 8 6 5 5 6 6 4 5 4 4 4 1 4 6 11 15 16 17 16 16 18 17 16 17 17 17 15 13 14 16 16 17 17 17 16 14 15 18 19 19 21 21 22 24 23 22 22 20 20 19 18 17 16 17 16 14 14 15 15 16 14 14 14 13 12 11 10 10 10 10 11 11 11 10 9 10 10 9 9 10 10 11 12 12 12 12 12 14 16
5 6 4 5 5 4 4 6 8 5 3 2 5 8 4 2 2 3 1 4 7 10 13 15 16 17 16 16 18 16 16 17 16 14 12 11 13 15 16 16 16 17 17 16 16 17 20 20 19 20 23 25 24 22 20 19 19 19 18 16 15 16 15 14 15 15 15 15 14 13 13 12 12 12 11 11 11 11 12 11 11 10 9 9 9 8 8 9 9 10 11 11 12 12 12 14 16
2 3 4 6 5 4 3 5 6 4 3 5 7 9 4 2 2 3 2 7 10 13 14 14 15 16 16 16 16 15 15 14 13 13 13 12 14 15 16 18 17 16 17 17 16 15 22 23 18 21 25 26 25 22 20 21 21 21 19 16 16 16 14 14 15 15 15 14 12 12 11 11 11 11 11 11 12 12 11 11 11 10 9 9 8 7 7 8 8 9 10 11 12 11 12 13 15
0 1 4 4 3 4 3 5 5 4 4 6 6 6 2 1 2 2 3 9 11 13 14 14 15 14 15 16 14 13 13 13 13 13 14 13 12 13 16 18 17 17 17 18 17 16 22 25 19 22 25 26 27 25 24 24 23 21 19 18 17 16 15 13 12 14 15 13 12 11 10 10 11 10 10 11 11 11 11 11 10 9 9 8 7 6 6 7 8 8 9 11 11 11 12 13 13
2 1 4 4 4 4 2 3 3 2 4 4 5 5 2 3 4 1 3 9 10 12 14 14 15 13 14 15 12 12 13 13 13 12 13 11 10 11 14 16 17 17 17 18 18 16 20 26 22 22 25 26 27 27 26 25 23 21 20 19 18 16 14 13 13 12 13 13 13 12 10 10 11 10 9 9 9 9 9 9 9 8 7 7 6 5 5 7 8 8 9 10 11 12 13 14 14
2 1 1 3 4 3 1 1 2 3 3 3 4 6 3 5 5 3 2 10 11 11 13 13 13 12 13 14 12 12 13 12 11 11 10 9 8 9 12 14 14 16 16 18 20 16 18 25 24 21 25 26 25 24 25 25 23 21 20 18 18 15 13 14 16 13 12 13 13 12 10 9 8 8 8 8 8 8 8 8 7 7 6 5 6 5 5 7 8 8 9 10 12 12 11 13 13
2 1 1 1 3 3 2 1 2 2 1 2 5 5 4 5 3 3 4 11 12 11 13 13 13 13 13 13 12 13 12 11 11 12 11 10 9 9 10 12 14 17 15 17 22 20 17 22 25 23 24 24 22 21 24 25 23 21 19 17 15 13 12 14 15 13 12 13 12 11 10 8 7 7 7 7 7 8 8 7 6 5 4 4 6 6 6 7 8 8 8 10 11 9 8 9 10
1 2 2 1 1 2 4 1 1 2 2 2 4 4 5 5 3 2 5 11 11 10 11 13 13 14 14 12 12 11 11 11 11 12 12 12 12 11 11 13 16 19 17 16 20 23 21 18 21 24 24 23 21 23 24 24 23 20 18 16 13 12 13 14 13 12 13 13 11 9 8 7 7 7 6 6 6 7 7 6 5 5 5 6 7 7 7 7 8 9 9 9 10 9 8 8 8
2 2 2 0 1 1 3 1 2 3 2 3 1 2 4 2 1 0 6 11 10 10 11 13 13 13 14 12 11 11 10 9 10 12 13 12 12 12 12 14 15 18 19 18 17 20 21 18 18 21 23 21 20 25 25 22 21 19 17 15 14 13 14 14 12 12 13 12 9 6 6 6 8 7 6 6 6 6 7 6 6 6 6 7 8 8 7 7 7 8 9 10 9 8 9 9 9
1 1 2 1 1 1 2 1 2 5 3 2 3 2 6 6 0 2 7 10 10 11 11 13 13 12 12 11 11 12 11 11 10 12 14 13 12 13 13 14 16 16 18 19 17 17 17 17 19 20 20 18 17 23 24 21 19 17 16 16 15 15 15 13 11 11 11 10 7 6 7 8 8 7 6 6 5 6 7 6 7 8 7 7 8 7 7 7 7 8 10 10 7 7 10 9 10
3 2 2 1 1 2 2 2 2 6 5 4 5 4 8 11 3 4 6 9 11 12 11 11 12 12 12 11 12 13 13 13 12 13 15 13 13 13 13 14 16 16 17 18 19 17 15 16 19 19 19 17 15 18 20 20 17 15 16 16 15 15 14 12 11 10 10 9 8 8 9 8 7 6 7 6 6 6 7 7 8 8 8 6 7 7 6 7 8 8 9 9 7 6 9 10 12
3 2 1 2 3 3 2 3 4 4 6 8 9 7 8 11 7 3 4 8 11 11 10 10 11 12 12 12 12 13 14 14 12 15 15 14 13 13 13 14 17 17 16 15 17 17 16 16 18 19 18 17 17 17 17 17 16 15 16 15 15 14 13 12 10 9 10 10 8 8 8 8 7 7 8 8 7 7 7 8 8 8 7 6 6 7 7 6 7 7 7 9 9 8 9 10 13
3 1 2 3 5 4 1 3 6 2 4 8 7 7 7 10 10 2 2 6 9 10 11 12 12 12 13 13 14 14 13 11 11 15 14 14 14 13 13 14 15 16 15 13 14 17 17 17 19 20 19 18 20 18 16 16 15 15 16 15 14 13 12 11 9 10 11 9 7 7 8 8 9 9 9 9 8 8 8 9 9 9 8 7 6 7 7 6 7 6 7 9 10 12 12 12 16
2 3 3 4 5 4 1 4 6 1 3 7 5 6 9 11 10 2 3 6 10 12 13 13 14 14 12 14 15 14 11 8 10 12 13 14 14 14 15 14 15 16 15 14 14 16 19 19 20 21 20 18 20 18 15 16 14 14 15 14 13 11 11 10 9 11 10 8 8 8 9 10 10 10 10 9 9 9 9 10 10 10 8 7 7 7 8 7 7 7 8 11 11 13 13 14 19
3 2 2 5 4 3 3 4 3 1 3 6 5 6 10 11 11 5 5 8 10 12 15 15 15 14 13 14 14 15 13 9 10 11 13 14 15 15 15 14 15 16 15 15 14 15 17 18 18 21 20 17 20 20 16 14 13 12 12 12 12 11 10 9 9 10 10 9 9 9 10 11 10 10 9 9 8 9 10 11 11 11 9 8 8 9 8 8 8 8 10 12 12 12 13 14 18
3 3 4 5 1 1 4 2 1 2 4 7 7 7 9 10 9 6 5 8 9 10 13 14 13 13 14 15 14 15 16 13 12 12 12 13 15 15 14 14 15 15 15 15 14 15 16 15 16 18 18 17 20 22 18 13 11 11 9 9 10 9 8 8 8 9 10 10 10 10 10 9 9 9 9 8 8 8 9 11 11 11 10 9 9 9 9 9 9 10 10 12 14 14 13 13 13
3 4 6 5 2 5 8 3 2 4 4 5 6 6 7 6 6 5 1 3 8 9 10 13 13 12 11 12 13 14 16 14 13 12 12 13 14 15 14 14 15 15 15 14 14 15 16 14 14 16 17 18 20 20 18 13 11 11 9 9 9 8 7 8 8 8 9 9 9 9 9 8 8 8 8 8 8 8 9 10 10 11 10 9 9 8 9 9 9 10 11 13 15 15 15 13 11
2 5 9 10 9 10 8 1 2 5 3 1 2 5 4 0 3 4 0 2 6 7 10 14 15 12 11 11 13 14 14 13 12 12 12 13 15 15 15 15 16 15 15 15 14 14 17 16 14 15 15 17 18 16 16 14 13 12 12 12 12 10 9 8 8 8 9 8 8 9 8 7 7 7 6 7 7 7 8 9 10 9 9 9 9 8 8 9 9 11 12 14 16 16 16 14 12
3 3 8 11 10 8 6 4 3 3 2 1 1 4 4 2 2 2 2 4 6 6 10 14 13 12 13 12 12 13 13 12 12 12 12 13 15 16 15 16 16 15 16 17 15 12 16 19 17 15 15 15 15 14 16 16 14 13 13 13 12 11 11 9 9 8 7 7 7 8 7 6 7 6 6 6 7 7 7 9 9 8 8 8 9 9 9 10 10 11 12 14 16 16 17 14 12
2 2 5 7 7 7 7 7 6 3 3 1 2 2 5 5 3 1 3 5 7 8 11 12 12 13 14 13 12 12 13 12 11 12 13 13 15 16 16 16 16 16 17 18 17 13 15 19 18 16 15 14 14 14 16 16 14 14 13 13 12 11 11 10 8 8 8 8 7 7 7 7 8 7 7 7 7 7 8 9 9 8 8 8 9 9 9 10 11 11 12 14 15 17 17 13 12
3 3 4 4 5 5 6 6 5 1 2 4 3 3 4 5 2 1 2 4 7 9 10 10 11 12 13 14 13 12 12 11 11 12 12 14 16 17 16 16 16 16 17 17 17 15 14 17 17 15 13 13 14 15 16 15 13 13 13 14 15 13 12 11 8 8 8 8 8 8 8 8 9 9 8 8 7 7 7 9 9 8 8 9 10 9 9 10 11 12 14 15 16 16 15 12 12
2 5 4 2 3 2 3 4 3 2 2 7 4 5 5 5 2 2 1 4 6 6 6 6 8 9 11 12 13 12 11 10 10 11 11 14 16 16 16 16 17 16 15 15 15 16 16 17 16 14 13 14 15 15 15 14 15 15 15 18 18 15 14 12 9 8 8 7 8 9 8 8 7 8 8 8 8 8 7 8 9 9 9 9 10 10 10 11 12 13 15 15 15 15 13 11 12
3 5 4 2 3 2 1 1 1 2 4 6 4 6 5 5 2 3 2 2 2 3 5 5 5 7 8 10 11 10 10 9 9 10 11 14 16 16 16 17 17 16 15 14 14 15 17 18 16 14 15 17 17 15 15 16 17 17 18 19 19 17 16 14 12 10 9 9 9 9 9 9 9 9 9 9 9 8 8 7 8 8 8 9 10 10 11 11 12 14 15 14 14 13 12 13 13
1 1 1 0 1 2 2 2 2 4 5 2 1 4 5 5 4 2 1 1 1 3 5 6 6 6 7 10 10 10 10 10 9 9 11 13 14 15 16 16 16 17 16 16 15 15 17 19 17 16 17 18 18 17 17 19 19 19 19 19 18 16 16 16 15 14 12 12 12 13 12 12 11 10 10 9 9 8 7 7 7 8 7 8 9 10 10 11 12 13 14 16 17 15 13 14 14
3 2 2 2 2 1 2 2 2 4 4 2 2 3 4 6 7 3 2 3 3 4 5 7 8 7 8 10 10 10 10 10 10 9 10 12 12 13 16 17 17 18 18 17 17 16 18 19 18 18 19 18 18 19 19 19 19 19 19 18 17 16 15 16 16 16 15 15 15 15 14 13 12 11 10 9 8 7 6 5 6 7 8 8 9 10 10 10 11 11 12 15 15 14 13 13 14
6 5 4 4 2 2 2 2 1 4 3 2 1 2 2 5 4 2 4 5 6 7 7 8 9 8 10 10 10 10 12 12 10 8 9 11 10 10 15 17 17 18 19 18 18 17 18 19 19 19 18 17 18 21 20 19 20 19 19 19 17 16 17 17 18 18 17 17 16 15 14 13 12 11 9 9 7 6 5 4 4 6 8 8 9 10 10 9 9 9 10 12 11 10 11 13 14
5 4 3 4 3 2 2 3 3 4 1 3 1 2 3 3 0 2 4 5 6 7 8 7 8 8 8 9 10 10 11 11 11 9 9 11 13 12 15 17 17 18 19 19 18 18 18 19 19 18 17 18 20 22 22 21 20 21 20 19 18 18 19 18 19 19 18 18 16 15 13 12 11 10 9 7 6 6 5 3 4 7 9 8 8 9 8 8 8 8 8 9 10 10 11 12 12
2 2 2 3 3 2 0 1 0 1 0 1 1 2 3 3 2 2 3 3 5 7 9 5 2 4 7 9 9 10 10 10 10 10 10 13 16 16 16 17 17 18 19 19 18 18 18 17 17 16 16 19 23 23 23 22 22 22 21 20 19 20 20 20 20 20 18 17 15 14 12 11 10 9 8 7 6 6 5 4 5 8 9 8 7 7 7 7 7 7 8 8 9 10 9 9 9
3 3 4 1 1 2 2 0 2 1 3 1 1 3 3 2 3 2 2 4 6 8 9 8 5 1 7 8 8 9 9 10 10 10 11 13 15 16 17 18 19 19 19 19 18 18 17 15 15 14 14 19 24 23 22 22 22 22 21 20 20 21 20 20 20 20 19 17 14 13 12 11 10 9 7 8 7 7 5 5 5 7 8 7 7 6 6 6 7 8 8 8 7 8 8 8 8
4 3 3 3 1 1 1 2 1 0 4 2 1 3 3 2 2 1 3 5 7 9 9 8 8 5 3 4 7 8 9 10 10 9 10 12 14 17 18 18 19 19 19 18 18 16 15 14 14 15 17 21 24 23 22 23 22 22 22 21 21 22 20 19 19 19 18 17 15 13 13 12 10 8 8 8 8 7 5 4 3 4 6 6 6 6 5 6 7 8 8 8 7 7 7 8 8
1 1 2 3 2 2 2 2 2 2 3 2 1 2 2 3 3 1 3 5 7 7 8 9 9 8 6 3 3 5 6 7 8 9 10 11 13 16 17 17 18 19 19 18 17 16 15 15 16 17 20 23 23 23 23 22 22 22 21 21 22 22 20 19 18 18 17 16 15 14 13 12 11 9 9 9 8 7 5 3 3 3 4 6 7 6 5 6 7 8 8 7 7 7 8 8 9
0 1 2 1 2 1 1 1 1 3 2 1 1 2 2 4 2 2 3 5 6 5 5 8 8 8 8 6 5 4 4 3 3 6 8 10 11 12 14 16 17 19 19 18 18 18 17 15 16 19 21 22 22 22 22 21 21 20 20 21 22 21 19 17 16 16 17 16 15 14 13 11 11 10 9 9 8 6 4 3 4 4 5 7 6 6 5 6 7 7 7 7 7 7 8 8 9
3 3 4 2 1 0 1 1 1 1 2 2 2 3 2 1 1 2 4 5 6 4 4 6 6 8 8 8 7 6 5 4 2 2 4 8 11 11 11 15 17 18 19 19 19 18 16 15 17 19 20 21 22 22 22 21 21 19 19 20 20 19 17 15 14 15 17 16 15 13 12 11 10 10 10 9 7 5 4 4 5 5 6 7 7 6 7 7 7 7 7 7 7 7 8 8 8
3 3 4 4 3 2 3 3 1 1 2 1 1 4 2 2 1 2 4 4 6 4 4 6 6 8 9 9 8 7 5 4 4 5 6 8 12 15 14 15 17 18 18 19 20 18 15 17 19 20 21 23 23 22 22 22 21 21 20 20 19 18 16 14 14 15 16 16 14 13 12 11 10 10 9 8 7 6 5 5 6 6 7 8 7 8 8 8 7 7 7 7 6 6 7 8 9
Wind_Direction
142 138 121 113 115 134 120 325 185 81 258 261 246 247 227 206 312 286 267 284 255 208 165 324 300 227 230 289 279 104 44 355 62 84 198 69 130 142 144 137 137 138 135 134 134 136 136 139 139 137 137 137 140 140 137 136 138 138 142 143 144 145 144 142 139 140 141 142 141 138 137 136 137 136 135 135 135 134 133 131 130 131 131 129 129 128 127 125 122 121 119 118 118 116 111 106 102
142 132 117 115 106 139 139 335 218 90 223 257 227 202 355 109 225 244 259 284 270 296 320 311 270 179 224 330 338 162 70 36 42 57 86 115 125 131 141 140 138 137 134 133 133 135 134 136 138 136 134 134 136 140 141 139 138 138 140 142 144 143 141 140 139 142 143 141 138 137 137 136 138 137 137 137 136 134 133 132 131 131 131 130 130 128 127 126 123 122 120 118 119 118 113 110 105
139 124 120 128 88 21 130 344 230 134 206 250 246 190 335 159 219 226 246 265 284 301 312 308 263 186 235 199 347 288 77 67 88 91 112 125 125 136 144 140 137 136 134 134 134 135 134 136 138 136 133 132 131 135 141 141 139 138 140 141 142 142 139 138 139 139 137 136 135 136 137 137 138 136 138 139 136 133 134 134 132 133 133 132 131 129 127 127 125 123 122 121 120 119 117 115 111
134 120 138 154 107 28 134 91 140 181 221 249 274 181 225 219 225 242 262 280 298 296 305 306 255 96 309 123 38 345 72 74 111 114 128 131 132 141 143 139 137 134 135 136 135 136 137 140 140 138 136 133 131 132 136 139 140 139 140 142 141 143 143 141 140 139 138 138 138 140 141 141 139 136 139 140 137 135 136 136 135 135 135 134 133 132 131 130 127 124 123 123 123 121 121 119 117
129 110 134 187 174 124 128 99 115 221 230 218 269 188 219 221 255 299 286 292 293 291 291 266 194 86 51 53 32 19 58 83 120 127 130 131 137 141 142 140 137 137 138 138 137 137 141 145 144 143 140 136 135 134 134 134 138 142 141 142 142 143 144 142 143 144 143 143 142 145 145 146 144 140 141 141 139 138 139 139 139 137 137 137 135 133 132 131 128 127 126 124 124 125 125 124 122
132 108 86 96 105 101 150 169 193 233 234 189 264 273 236 237 283 298 292 294 288 285 275 231 186 110 98 68 65 46 348 133 124 129 132 137 142 142 142 140 138 139 140 141 140 139 146 149 148 146 143 140 138 136 134 132 136 143 143 143 142 142 143 144 145 145 145 145 145 148 151 152 149 144 143 143 141 141 142 142 140 140 141 140 137 135 133 132 131 130 128 128 128 129 130 126 121
147 133 69 98 103 341 185 218 228 241 230 183 254 292 287 296 293 295 298 304 299 268 245 219 160 129 107 109 101 42 13 31 118 131 134 139 140 141 142 141 139 139 141 142 140 140 147 150 149 148 146 144 141 138 135 135 139 141 141 142 142 142 145 146 145 145 146 147 147 149 151 152 147 144 146 146 145 144 143 143 142 141 141 141 139 138 139 138 136 132 131 135 135 133 129 121 119
135 133 336 146 114 6 178 246 250 237 234 205 262 281 289 305 297 291 291 293 302 264 262 248 191 161 98 116 104 40 37 59 107 122 131 137 137 140 142 141 139 140 142 139 137 140 147 150 150 149 148 146 142 138 136 138 140 139 139 139 142 146 148 147 146 147 148 149 150 149 149 148 146 148 152 149 148 146 141 142 144 143 142 144 144 143 144 142 139 135 137 139 137 132 124 118 119
68 51 195 172 137 36 217 257 264 238 251 260 270 270 285 295 284 279 278 273 257 262 260 229 221 184 120 105 93 52 47 81 111 121 133 136 136 140 141 142 140 141 141 137 138 141 147 151 150 150 148 146 142 138 137 139 141 142 142 142 145 148 149 148 146 148 152 153 152 151 149 150 152 154 155 153 151 147 141 141 143 147 148 147 147 148 148 144 141 139 139 139 136 130 121 119 122
39 24 160 126 143 217 248 251 258 248 255 271 277 279 286 288 281 271 273 277 264 255 240 169 157 136 124 104 91 65 68 106 117 125 134 136 137 140 140 142 142 141 141 140 140 142 147 150 150 149 146 145 143 140 142 146 147 149 149 148 149 149 149 147 146 150 156 157 155 154 153 155 158 157 155 156 157 152 146 141 138 145 153 153 149 150 151 146 142 139 138 140 139 131 123 122 126
79 41 130 149 171 220 238 244 247 271 281 291 286 271 277 291 287 277 277 281 274 229 194 167 142 126 115 96 90 92 100 115 122 129 135 135 138 138 138 141 143 143 143 143 142 142 145 148 150 149 147 145 144 146 149 154 156 155 154 153 153 154 154 151 150 152 153 156 157 156 157 158 159 160 159 158 160 158 151 144 136 138 148 154 151 149 149 148 145 141 142 142 138 131 125 126 130
148 121 205 181 201 225 234 265 276 293 286 287 296 76 312 302 296 309 310 297 284 191 185 203 158 132 117 109 109 109 102 106 121 133 137 135 138 139 139 140 144 146 145 144 141 142 145 148 150 149 149 148 148 150 153 156 156 155 154 154 156 158 160 158 156 155 153 155 158 157 157 158 158 160 160 158 160 159 156 151 142 137 139 145 148 148 149 149 147 145 145 141 135 131 127 128 132
166 148 172 177 223 216 128 288 290 302 297 293 337 9 332 317 335 330 312 314 48 166 171 188 159 128 110 115 113 115 107 105 121 135 139 137 139 140 141 141 144 147 145 143 141 145 148 149 151 152 153 153 154 154 154 155 155 154 153 155 156 156 158 157 156 157 155 156 160 160 158 158 158 159 159 158 158 156 155 150 143 141 140 142 145 149 150 149 149 146 144 141 134 130 130 131 135
178 165 194 186 58 113 200 273 282 285 300 35 349 335 328 329 341 319 294 25 80 94 53 118 152 116 109 128 125 123 121 120 127 136 140 139 138 141 143 143 144 146 147 147 146 148 150 153 157 158 157 157 157 155 155 156 155 155 156 156 154 151 151 151 152 154 155 157 160 161 161 161 160 159 158 157 155 151 149 145 142 141 142 145 149 150 148 148 149 147 142 141 136 132 131 134 138
175 152 172 216 182 153 213 244 284 257 255 36 11 338 331 327 319 321 352 359 83 30 14 110 39 44 148 162 152 143 139 134 135 139 141 139 137 139 141 141 144 147 150 152 152 153 155 159 163 162 160 160 159 157 156 158 159 158 158 157 153 150 149 150 153 154 154 155 158 160 161 162 162 162 159 156 152 148 144 143 142 139 140 146 150 149 147 147 149 148 144 142 138 133 131 135 140
125 138 95 244 227 184 194 202 222 259 297 343 343 345 339 349 345 342 346 308 109 48 12 79 8 345 163 159 141 142 145 141 141 143 141 137 134 134 137 140 145 150 154 156 157 157 160 163 163 164 163 163 162 161 159 160 163 162 160 157 154 152 150 153 155 154 152 153 157 157 158 159 159 159 156 153 150 147 144 142 142 138 137 142 145 148 149 148 150 150 146 143 139 134 132 135 140
140 175 157 237 221 190 188 194 191 270 327 319 336 354 347 342 355 18 50 69 102 64 34 42 15 16 125 129 135 141 146 145 145 146 140 136 134 135 138 142 148 155 159 162 162 161 163 165 165 166 166 166 166 166 162 163 166 164 161 158 154 154 154 156 155 153 152 154 156 155 156 155 151 150 149 150 148 146 144 142 143 138 134 137 142 148 151 151 152 152 149 145 142 138 133 133 139
195 175 205 230 202 189 189 199 200 312 328 331 334 354 353 335 346 13 162 85 91 80 68 66 65 92 113 124 135 141 145 147 149 149 141 140 143 144 146 151 156 160 164 168 169 168 169 170 170 169 168 169 170 168 165 164 167 164 162 161 158 156 157 158 157 154 155 156 155 153 153 150 147 146 147 148 147 145 143 142 142 137 132 135 139 144 150 151 151 150 149 148 146 143 138 134 141
199 144 226 223 160 171 200 225 252 289 314 325 324 343 353 325 333 325 273 105 130 117 91 94 96 107 120 129 138 142 146 150 153 152 148 150 155 154 154 157 161 164 169 173 175 177 175 174 174 172 172 172 171 170 168 166 167 166 165 166 162 160 159 159 160 160 159 159 157 155 152 149 148 146 145 146 145 143 146 147 141 135 131 130 134 141 150 155 153 149 147 148 148 147 142 138 142
188 190 236 213 144 245 229 238 259 264 297 315 315 321 318 311 310 294 301 211 192 172 137 131 128 130 133 138 144 147 151 155 159 159 155 157 161 160 160 163 168 171 173 175 180 183 181 178 177 174 173 173 172 172 171 169 168 168 168 169 165 163 162 161 164 164 163 163 162 160 155 151 148 143 142 143 144 145 148 149 141 134 131 129 133 138 147 156 157 156 152 150 150 149 145 143 144
170 212 230 114 142 227 229 244 266 271 270 298 308 312 311 323 305 278 302 272 242 191 179 171 154 148 145 147 150 153 157 159 164 164 160 160 163 164 167 170 173 173 174 177 181 184 183 180 178 176 175 176 175 173 173 172 170 170 170 172 168 166 166 163 164 165 165 166 166 164 158 153 150 147 148 147 148 151 148 144 137 134 133 132 132 133 139 148 154 159 157 152 152 152 150 149 149
199 216 152 124 190 278 285 269 271 262 264 292 300 308 316 324 289 265 271 269 278 118 188 174 160 155 151 153 155 156 161 163 165 168 166 165 167 168 170 172 173 174 177 180 180 183 184 182 180 179 179 181 179 174 174 173 171 171 172 173 170 169 169 165 164 165 165 166 168 168 162 156 153 151 152 150 148 150 146 141 139 137 136 133 129 127 130 138 147 152 153 154 154 155 152 150 153
239 223 123 211 221 267 273 273 276 264 288 289 296 311 323 311 305 288 245 251 265 84 182 164 159 159 155 156 158 161 164 164 169 175 171 170 174 175 174 172 171 174 179 181 181 182 185 185 183 182 182 182 180 177 174 174 174 174 174 173 172 171 169 166 164 165 164 165 166 166 161 158 157 155 153 150 145 145 147 145 143 140 137 132 125 121 121 128 138 144 150 154 155 153 147 144 151
246 245 340 264 213 232 254 265 278 277 259 269 289 309 301 292 313 331 258 248 133 158 167 157 157 159 157 158 162 166 164 164 179 184 177 176 180 178 175 171 166 169 177 181 185 185 185 187 185 185 185 182 181 179 175 175 176 174 174 175 173 171 169 167 165 162 162 164 163 162 159 157 157 156 151 148 146 146 149 148 147 143 136 130 122 119 118 122 128 136 146 152 154 150 140 138 146
240 245 266 274 242 240 255 268 274 272 257 262 280 286 276 269 294 303 289 153 134 143 150 151 154 158 160 165 168 167 164 173 188 186 177 174 171 169 171 170 165 169 175 179 187 189 188 188 187 187 185 183 182 179 177 176 176 174 175 176 172 172 170 165 164 162 161 162 162 163 162 160 159 157 151 148 150 150 151 150 147 143 135 130 125 120 119 122 125 130 140 150 154 149 139 135 142
222 234 244 259 271 271 265 269 269 277 269 206 260 280 281 281 292 276 316 114 142 139 144 150 154 162 166 170 170 168 172 183 190 180 171 163 160 165 170 173 170 171 177 178 181 189 192 188 187 186 182 182 182 179 178 175 172 175 176 176 174 173 169 163 164 162 161 162 163 164 165 166 164 160 155 150 154 155 153 152 149 144 137 132 127 122 121 124 128 131 136 145 152 152 143 137 142
171 211 246 252 276 288 263 273 273 295 274 192 239 281 301 352 302 256 110 130 151 143 146 154 159 167 171 175 171 171 182 187 183 175 172 168 168 171 173 177 176 174 180 182 180 184 190 190 185 183 184 183 182 178 177 174 173 177 179 176 174 171 165 166 168 159 156 160 164 167 167 167 165 160 157 155 158 157 155 155 153 145 138 134 131 124 125 129 132 134 136 141 148 153 148 142 146
227 231 280 261 281 275 231 266 273 298 273 190 204 269 303 342 262 270 121 151 158 147 153 161 166 170 174 178 172 176 191 185 177 180 180 174 174 176 178 183 183 181 183 184 183 178 183 190 187 183 187 186 185 183 178 178 177 178 181 176 174 172 165 167 168 158 156 160 164 168 168 170 168 159 156 157 159 157 156 158 154 146 140 139 140 133 132 138 138 137 136 138 144 150 148 146 150
274 321 297 291 316 296 224 257 259 254 265 154 164 256 252 215 234 332 119 163 165 154 159 168 173 174 176 180 176 182 193 185 176 184 185 176 171 175 184 190 188 187 190 186 184 176 176 188 192 187 190 191 190 186 178 180 180 178 180 178 178 180 177 176 173 166 163 165 168 170 173 182 177 161 154 157 157 158 160 161 156 150 149 150 153 150 146 146 144 143 139 139 147 152 149 149 153
261 145 277 308 313 300 127 262 285 245 257 114 170 258 249 216 244 321 167 172 169 165 167 173 179 180 180 182 181 185 191 185 177 176 174 166 165 172 183 190 190 191 191 186 186 180 170 184 195 190 191 195 193 188 179 179 180 177 181 181 179 183 191 188 179 173 170 173 176 174 176 182 180 169 163 160 159 164 167 167 164 160 161 168 170 166 159 152 149 147 144 146 153 154 150 152 154
292 235 184 341 282 288 359 326 316 266 300 92 201 245 275 249 281 339 193 179 176 176 175 177 182 185 187 188 186 188 189 183 171 162 155 157 173 179 179 183 191 195 190 182 186 191 178 178 190 190 191 193 188 188 183 177 178 178 182 183 180 185 193 186 176 174 177 179 180 179 171 167 184 189 177 166 164 171 174 172 173 178 188 192 183 176 167 157 154 152 149 153 154 149 145 146 143
2 266 205 76 224 303 339 339 7 302 1 36 214 232 283 275 325 348 189 188 190 187 185 185 186 188 190 192 192 191 187 175 163 158 155 164 182 187 183 184 193 198 194 185 185 195 193 184 187 187 193 196 186 186 183 176 179 182 183 185 187 190 187 180 177 179 180 179 180 177 159 161 200 201 180 172 171 174 177 175 177 195 206 199 188 179 166 158 160 158 155 160 156 146 145 142 134
42 287 241 341 240 294 332 111 50 338 341 20 316 268 288 267 10 269 187 193 202 199 198 197 194 192 192 193 196 194 190 179 167 165 162 165 179 183 183 186 193 199 199 194 187 189 192 194 195 189 197 203 189 184 183 178 182 184 186 190 195 194 183 180 181 181 182 181 180 169 153 182 207 194 176 173 173 177 178 178 184 192 198 193 186 177 167 161 163 164 161 164 160 148 148 143 134
155 270 250 267 241 238 301 238 38 3 352 7 358 307 280 275 147 141 192 197 205 209 207 205 203 198 194 194 196 196 194 192 182 173 168 167 175 179 182 188 193 198 199 198 196 191 187 192 198 196 199 201 187 182 182 182 185 185 189 193 196 192 184 181 179 181 188 187 185 179 178 197 199 182 177 172 176 184 178 180 184 184 187 188 183 175 172 165 164 173 170 165 161 151 151 147 140
193 196 230 257 238 209 266 278 327 352 336 311 315 288 276 281 259 160 208 205 207 218 213 211 212 205 201 198 200 201 196 199 190 171 168 168 172 178 183 188 193 197 196 197 201 200 191 189 194 197 200 198 189 182 178 180 184 184 188 190 192 189 183 182 181 183 191 191 194 193 190 195 192 186 184 178 181 182 176 180 181 181 184 185 181 174 173 171 166 176 176 162 150 151 155 147 139
144 141 223 273 280 250 225 274 288 321 311 295 291 276 272 280 268 183 211 216 213 224 220 217 219 212 210 206 207 206 201 203 186 163 164 165 168 176 180 184 192 197 195 191 194 195 189 191 197 200 203 199 190 181 172 172 177 182 186 185 185 185 184 185 183 186 193 195 199 196 192 195 196 194 191 187 185 180 178 180 180 185 186 181 181 174 172 174 169 171 170 155 143 145 151 141 135
123 144 257 271 277 280 129 247 264 258 282 281 279 273 263 268 271 235 179 223 219 223 221 220 219 214 214 212 212 210 207 202 173 156 159 164 166 173 180 182 186 192 194 187 185 187 186 193 201 203 205 202 192 182 173 171 175 183 187 183 180 182 185 185 183 190 195 199 202 198 197 197 195 195 196 193 188 185 184 181 183 190 190 180 177 174 171 173 173 168 158 152 150 149 148 143 142
171 224 261 274 267 282 282 259 274 242 246 269 274 280 267 261 270 263 153 214 218 218 217 218 218 214 215 216 216 214 205 185 164 156 156 164 168 171 178 182 182 186 191 190 184 185 188 194 201 202 201 200 194 186 177 177 180 182 186 184 180 180 185 184 187 193 195 202 205 201 197 194 194 195 194 195 193 196 193 186 189 194 192 180 173 170 170 173 174 170 158 154 155 154 150 147 149
191 206 244 264 266 305 284 253 280 220 229 272 280 279 275 274 279 268 205 215 223 220 214 214 213 208 210 213 214 212 202 177 168 166 160 164 168 171 175 181 187 187 187 190 187 182 184 189 195 199 198 195 194 191 184 183 184 183 184 183 180 178 183 186 188 192 196 203 202 195 193 191 194 194 190 193 197 203 201 195 194 193 191 184 175 170 171 176 175 175 167 157 153 153 150 152 158
194 203 233 253 256 358 266 225 177 224 234 267 280 285 280 277 278 267 226 227 241 238 227 223 218 209 208 209 207 206 202 186 174 170 163 163 166 171 174 178 186 185 181 187 188 182 184 186 186 193 196 192 193 195 191 184 178 179 177 175 176 175 179 182 182 189 197 201 197 192 191 191 196 194 187 189 193 195 198 200 198 192 189 187 181 175 174 177 178 179 175 164 156 151 153 159 166
210 214 232 252 228 221 245 260 326 283 249 245 263 277 271 265 260 246 196 240 252 251 242 235 229 222 215 213 211 208 203 191 178 172 165 163 165 169 173 177 181 178 174 181 183 183 187 185 180 185 192 191 191 194 192 182 172 173 165 160 167 168 173 177 178 188 194 195 196 193 190 190 194 191 184 184 185 189 192 194 194 191 190 190 184 181 179 181 183 184 180 175 167 158 158 162 161
241 217 220 234 233 224 230 226 348 290 267 176 233 262 260 278 245 232 149 298 256 245 238 235 229 221 215 214 212 209 203 189 180 176 169 166 166 168 171 176 180 175 173 179 180 178 183 185 182 179 182 187 191 194 191 186 178 173 166 163 169 171 175 181 184 187 188 187 193 193 189 185 182 178 176 175 178 191 195 187 189 194 194 192 188 184 183 184 186 189 189 186 180 168 163 162 161
272 219 208 222 231 228 213 179 190 257 278 103 221 275 282 298 258 253 324 299 276 252 235 235 229 215 212 212 207 207 202 186 176 176 172 169 167 168 170 174 179 176 174 180 180 173 179 187 188 182 183 189 191 190 186 183 178 175 173 173 175 175 175 178 182 181 181 182 183 184 182 172 167 168 170 173 178 189 190 185 190 196 192 192 191 185 185 187 187 191 194 193 189 180 171 165 162
257 174 188 198 207 216 201 191 206 248 312 292 201 250 276 274 258 297 315 288 277 258 238 233 226 216 216 216 211 209 201 183 174 175 173 170 168 169 170 172 177 177 174 177 179 176 176 183 189 189 190 191 187 182 179 177 176 175 176 176 176 176 173 168 170 172 172 173 171 169 171 167 167 171 173 175 179 182 183 185 190 191 188 189 189 186 185 187 187 189 195 200 199 190 180 168 156
250 159 166 171 183 201 186 190 216 240 317 275 214 173 246 265 222 158 294 270 265 259 247 235 222 216 217 218 218 210 196 181 178 179 174 169 169 169 168 169 175 176 172 174 182 186 179 180 185 185 183 182 181 179 177 178 179 176 176 178 176 175 173 165 160 164 163 162 164 163 165 167 166 167 168 169 172 173 176 183 186 184 184 184 187 189 187 188 190 192 197 202 204 200 189 175 169
218 138 134 101 109 131 160 186 206 148 248 262 224 169 231 273 233 171 218 247 260 273 271 251 228 221 217 218 219 204 187 180 179 178 175 169 165 164 164 167 173 173 167 167 180 189 184 181 180 174 174 179 181 179 177 179 181 180 181 181 177 173 172 168 157 157 160 157 159 158 159 160 158 158 156 157 161 164 166 174 180 180 180 184 189 194 194 192 193 194 197 200 207 210 204 197 197
106 132 140 93 102 102 120 156 159 179 235 257 220 176 217 280 272 186 195 227 270 311 307 289 250 232 222 218 212 191 181 182 177 174 172 165 158 158 162 166 170 168 161 160 174 185 184 183 179 172 177 182 181 180 180 181 183 185 185 182 178 174 172 169 160 157 159 157 156 154 153 152 150 150 150 150 152 153 157 162 170 177 181 186 190 194 195 193 193 194 196 199 205 210 210 212 217
110 168 178 175 158 126 127 136 151 218 241 289 52 164 192 243 255 217 203 229 273 305 302 295 266 237 219 211 193 175 180 180 172 170 165 157 154 158 162 163 165 163 162 164 171 179 181 181 178 175 179 183 183 183 184 184 184 185 185 182 181 179 174 171 166 161 160 159 158 153 151 150 150 150 149 149 149 145 149 155 166 177 183 188 191 192 192 192 194 193 194 199 202 203 206 212 219
204 201 200 227 221 145 183 187 173 233 247 31 57 154 182 245 262 289 309 276 290 296 283 278 266 243 220 205 179 168 180 176 168 165 159 157 158 161 161 161 164 164 166 168 170 175 177 178 178 176 179 183 183 184 187 188 186 185 184 183 182 179 176 173 169 165 163 163 161 157 156 156 156 155 152 151 150 145 148 152 166 181 185 186 186 186 187 190 190 188 192 198 200 200 203 209 217
189 184 184 201 197 167 199 188 200 253 264 48 106 179 227 262 267 321 318 311 317 306 285 264 251 239 227 206 174 174 183 176 167 163 158 151 145 158 165 162 165 170 171 171 171 175 177 177 177 177 179 182 182 185 189 190 187 185 185 185 183 180 178 176 171 169 167 166 165 165 165 164 161 160 159 158 156 155 159 163 173 182 181 176 175 177 180 185 189 188 189 192 194 198 205 212 216
182 176 175 200 207 212 224 208 224 246 253 68 125 185 218 238 305 6 305 310 317 320 317 283 248 239 230 202 178 182 185 176 167 165 164 147 141 163 172 164 169 175 174 174 174 176 177 177 177 178 179 181 183 187 191 191 189 188 187 186 185 182 179 177 174 172 171 169 170 171 172 171 170 169 168 165 159 155 159 161 166 172 170 164 164 168 174 181 189 190 185 186 192 197 205 211 210
171 148 179 223 220 192 269 309 269 273 249 112 190 227 238 249 295 304 289 319 337 350 358 352 291 231 209 194 186 186 185 178 167 164 166 152 150 167 172 168 173 177 177 178 176 176 177 176 178 180 182 182 186 191 193 194 193 190 189 189 187 185 181 178 176 175 174 173 173 174 174 175 175 177 177 170 157 146 137 128 137 155 161 160 160 164 173 183 189 189 185 187 194 194 195 199 198
132 176 200 197 182 147 131 92 66 20 258 223 181 250 271 280 276 274 330 351 6 12 16 27 34 144 182 184 187 187 186 181 170 164 164 155 154 166 170 171 177 179 180 179 176 176 174 173 177 180 183 186 190 195 197 198 197 193 193 193 191 189 187 183 180 177 177 178 178 174 172 171 173 176 175 167 157 144 130 119 126 146 158 164 168 169 176 184 187 187 187 191 192 189 188 190 191
138 201 186 113 90 124 134 233 103 132 251 245 162 258 285 287 271 336 24 7 9 14 20 33 39 51 108 162 179 180 181 178 166 157 154 152 160 169 170 174 179 181 180 177 174 174 172 174 179 179 184 190 192 197 201 202 200 198 199 199 196 195 193 190 186 181 180 182 182 177 172 170 168 165 164 162 157 146 135 128 132 150 164 172 174 172 172 172 172 174 178 183 185 183 183 185 186
201 274 134 141 229 210 153 215 206 210 246 241 185 264 271 236 248 335 42 27 6 1 21 33 36 38 36 47 138 163 168 166 160 159 158 157 164 171 172 174 178 180 179 174 169 171 176 179 181 182 188 192 194 198 203 205 203 204 204 202 200 199 198 196 192 187 185 186 185 180 176 173 166 159 158 161 161 154 142 141 154 156 162 165 162 160 160 157 157 163 170 178 181 177 179 185 188
175 189 176 216 282 245 181 178 208 229 243 248 235 255 242 220 228 334 357 12 351 346 32 38 34 40 38 40 52 56 70 92 132 165 161 149 147 161 173 176 178 179 177 171 168 173 181 183 182 186 190 192 195 198 201 203 203 204 204 202 202 202 202 201 197 192 189 189 188 184 182 177 168 161 160 163 164 159 142 149 166 155 145 152 152 151 153 151 155 161 169 177 177 174 178 186 190
208 210 205 197 158 267 217 140 60 262 224 197 241 257 255 187 108 311 316 336 330 342 60 61 44 49 48 47 57 60 64 78 95 131 142 133 132 149 177 182 178 177 173 168 167 171 176 181 184 188 190 191 194 197 198 198 197 198 199 200 202 203 204 203 197 192 189 189 189 189 187 181 173 167 166 167 164 157 146 157 165 148 133 139 142 143 145 146 150 156 162 167 168 169 176 182 184
243 238 225 203 174 170 209 210 146 318 248 187 236 261 272 73 82 300 319 327 323 345 81 88 64 63 63 58 63 69 74 96 117 125 133 133 137 157 182 183 166 164 165 160 160 162 167 180 185 187 189 191 193 195 195 194 192 193 195 196 197 199 198 196 190 187 187 189 190 192 189 182 177 173 169 166 159 151 145 149 155 144 127 127 129 131 134 136 138 137 138 144 146 151 160 164 167